Weather History for KNFL - June, 2013

Change the Weather History Date:

Monday, June 17, 2013

  Actual Average (KRNO) Record (KRNO)
Temperature  
Mean Temperature 70 °F 68 °F  
Max Temperature 91 °F 84 °F 100 °F (2012)
Min Temperature 51 °F 52 °F 29 °F (1939)
Degree Days  
Heating Degree Days 0 1  
Month to date heating degree days 45  
Since 1 June heating degree days 45  
Since 1 July heating degree days 4913  
Cooling Degree Days 5 4  
Month to date cooling degree days 58  
Year to date cooling degree days 95  
Since 1 June cooling degree days 58  
Growing Degree Days 20 (Base 50)    
Moisture  
Dew Point 26 °F    
Average Humidity 21    
Maximum Humidity 41    
Minimum Humidity 7    
Precipitation  
Precipitation 0.00 in 0.02 in 0.32 in (1982)
Month to date precipitation 0.34  
Year to date precipitation 4.11  
Snow  
Snow 0.00 in 0.00 in 0.00 in ()
Month to date snowfall 0.0  
Since 1 June snowfall 0.0  
Since 1 July snowfall 21.8  
Snow Depth -    
Sea Level Pressure  
Sea Level Pressure 29.96 in    
Wind  
Wind Speed 5 mph (WSW)    
Max Wind Speed 22 mph    
Max Gust Speed 30 mph    
Visibility 10 miles    
Events      
T = Trace of Precipitation, MM = Missing Value Source: NWS Daily Summary

Daily Weather History Graph

Daily Weather History Graph

Search for Another Location

Airport or City:

Trip Planner

Search our weather history database for the weather conditions in past years. The results will help you decide how hot, cold, wet, or windy it might be!

Date:

Astronomy

Jun. 17, 2013 Rise Set
Actual Time 5:27 AM PDT 8:24 PM PDT
Civil Twilight 4:54 AM PDT 8:56 PM PDT
Nautical Twilight 4:13 AM PDT 9:37 PM PDT
Astronomical Twilight 3:26 AM PDT 10:25 PM PDT
Moon 2:09 PM PDT (6/17) 1:04 AM PDT (6/17)
Length of Visible Light 16h 01m
Length of Day
14h 56m
First Quarter, 61% of the Moon is Illuminated
Jun 17
First Quarter
Jun 23
Full
Jun 29
Last Quarter
Jul 8
New
Jul 15
First Quarter

Hourly Weather History & Observations

Time (PDT) Temp. Dew Point Humidity Pressure Visibility Wind Dir Wind Speed Gust Speed Precip Events Conditions
12:56 AM 64.9 °F 28.0 °F 25% 30.01 in 10.0 mi Calm Calm - N/A   Clear
1:56 AM 62.1 °F 27.0 °F 26% 30.01 in 10.0 mi Calm Calm - N/A   Clear
2:56 AM 57.9 °F 28.0 °F 32% 30.01 in 10.0 mi SW 6.9 mph - N/A   Clear
3:56 AM 55.9 °F 32.0 °F 40% 30.01 in 10.0 mi SW 5.8 mph - N/A   Clear
4:56 AM 53.1 °F 28.9 °F 40% 30.01 in 10.0 mi West 5.8 mph - N/A   Clear
5:56 AM 51.1 °F 28.0 °F 41% 30.01 in 10.0 mi SSE 4.6 mph - N/A   Clear
6:17 AM 53.6 °F 30.2 °F 41% 30.11 in 10.0 mi South 4.6 mph - N/A   Partly Cloudy
6:56 AM 60.8 °F 28.4 °F 29% 30.02 in 10.0 mi South 3.5 mph - N/A   Partly Cloudy
7:56 AM 66.2 °F 32.0 °F 28% 30.02 in 10.0 mi West 3.5 mph - N/A   Partly Cloudy
8:56 AM 71.6 °F 32.0 °F 23% 30.01 in 10.0 mi WNW 4.6 mph - N/A   Partly Cloudy
9:56 AM 75.2 °F 30.2 °F 19% 30.00 in 10.0 mi Calm Calm - N/A   Partly Cloudy
10:56 AM 78.8 °F 28.4 °F 16% 29.99 in 10.0 mi Variable 4.6 mph - N/A   Scattered Clouds
11:56 AM 80.6 °F 24.8 °F 13% 29.97 in 10.0 mi Variable 4.6 mph - N/A   Scattered Clouds
12:56 PM 84.2 °F 26.6 °F 12% 29.95 in 10.0 mi SW 8.1 mph - N/A   Scattered Clouds
1:56 PM 84.9 °F 24.1 °F 11% 29.93 in 10.0 mi Variable 4.6 mph - N/A   Scattered Clouds
2:56 PM 88.0 °F 21.0 °F 9% 29.90 in 10.0 mi WSW 9.2 mph - N/A   Scattered Clouds
3:56 PM 88.0 °F 16.0 °F 7% 29.88 in 10.0 mi SW 9.2 mph - N/A   Clear
4:56 PM 89.1 °F 18.0 °F 7% 29.86 in 10.0 mi NNW 5.8 mph - N/A   Partly Cloudy
5:56 PM 88.0 °F 21.9 °F 9% 29.86 in 10.0 mi West 21.9 mph 26.5 mph N/A   Partly Cloudy
6:56 PM 84.0 °F 21.9 °F 10% 29.86 in 10.0 mi West 21.9 mph 29.9 mph N/A   Partly Cloudy
7:56 PM 80.1 °F 19.9 °F 11% 29.87 in 10.0 mi WNW 19.6 mph - N/A   Partly Cloudy
8:56 PM 75.9 °F 19.9 °F 12% 29.88 in 10.0 mi NW 11.5 mph - N/A   Partly Cloudy
9:56 PM 73.0 °F 21.0 °F 14% 29.91 in 10.0 mi WNW 9.2 mph - N/A   Partly Cloudy
10:56 PM 71.1 °F 25.0 °F 18% 29.90 in 10.0 mi WNW 10.4 mph - N/A   Clear
11:56 PM 62.1 °F 25.0 °F 24% 29.91 in 10.0 mi Calm Calm - N/A   Clear